This demonstration page uses our WeatherBlox Daily Observations layout. Learn more.

38.89511, -77.03637

Hourly Observations for June 14, 2018

Temp ( °F °C ) Dew Point ( °F °C ) Humidity (%) Winds ( mph kmh ) Pressure ( in mb ) Visibility ( mi km ) Precip ( " mm )
12:52 am 00:52 Mostly Cloudy 77 25 71 21.7 82 82 S 7 11 29.83 1010 10 16.09344 0 0
1:52 am 01:52 Cloudy 79 26.1 70 21.1 74 74 WSW 7 11 29.83 1010 10 16.09344 0 0
2:22 am 02:22 Cloudy 79 26.1 70 21.1 74 74 WSW 3 6 29.85 1011 10 16.09344 0 0
2:52 am 02:52 Cloudy 77 25 69 20.6 77 77 Calm 29.85 1011 10 16.09344 0 0
3:52 am 03:52 Cloudy 79 26.1 66 18.9 65 65 NW 12 19 29.85 1011 10 16.09344 0.001 0.001
4:52 am 04:52 Mostly Cloudy 77 25 65 18.3 66 66 NNW 9 15 29.85 1011 10 16.09344 0 0
5:20 am 05:20 Mostly Cloudy 77 25 64 17.8 64 64 NNW 10 17 29.88 1012 10 16.09344 0 0
5:52 am 05:52 Mostly Cloudy 76 24.4 64 17.8 67 67 NW 10 17 29.88 1012 10 16.09344 0 0
6:52 am 06:52 Cloudy 75 23.9 60 15.6 60 60 NNW 15 24 29.91 1013 10 16.09344 0 0
7:52 am 07:52 Cloudy 75 23.9 54 12.2 48 48 N 13 20 29.91 1013 10 16.09344 0 0
8:52 am 08:52 Mostly Cloudy 77 25 50 10 39 39 N 10 17 29.94 1014 10 16.09344 0 0
9:52 am 09:52 Mostly Cloudy 78 25.6 49 9.4 36 36 NW 15 24 29.94 1014 10 16.09344 0 0
10:52 am 10:52 Mostly Cloudy 79 26.1 52 11.1 39 39 NW 9 15 29.97 1015 10 16.09344 0 0
11:52 am 11:52 Mostly Cloudy 82 27.8 48 8.9 31 31 NW 14 22 29.94 1014 10 16.09344 0 0
12:52 pm 12:52 Partly Cloudy 83 28.3 46 7.8 27 27 WNW 15 24 29.94 1014 10 16.09344 0 0
1:52 pm 13:52 Partly Cloudy 84 28.9 45 7.2 25 25 NW 18 30 29.91 1013 10 16.09344 0 0
2:52 pm 14:52 Partly Cloudy 86 30 49 9.4 28 28 W 15 24 29.88 1012 10 16.09344 0 0
3:52 pm 15:52 Mostly Sunny 86 30 49 9.4 28 28 NW 18 30 29.88 1012 10 16.09344 0 0
4:52 pm 16:52 Mostly Sunny 86 30 48 8.9 27 27 NW 18 30 29.88 1012 10 16.09344 0 0
5:52 pm 17:52 Mostly Sunny 86 30 49 9.4 28 28 NNW 16 26 29.88 1012 10 16.09344 0 0
6:52 pm 18:52 Partly Cloudy 85 29.4 49 9.4 29 29 NW 13 20 29.88 1012 10 16.09344 0 0
7:52 pm 19:52 Partly Cloudy 83 28.3 50 10 32 32 NW 9 15 29.88 1012 10 16.09344 0 0
8:52 pm 20:52 Mostly Clear 81 27.2 49 9.4 33 33 WNW 8 13 29.91 1013 10 16.09344 0 0
9:52 pm 21:52 Mostly Clear 81 27.2 50 10 34 34 WNW 8 13 29.91 1013 10 16.09344 0 0
10:52 pm 22:52 Mostly Clear 78 25.6 51 10.6 39 39 W 8 13 29.94 1014 10 16.09344 0 0
11:52 pm 23:52 Clear 76 24.4 51 10.6 42 42 NW 7 11 29.94 1014 10 16.09344 0 0

Powered by AerisWeather